📊 Raw Sensor Data
Showing records 51626 to 51650 of 85,151 total
| ID | Distance (ft) | Battery V | Battery A | Int Temp (°F) | Int Humid (%) | Ext Temp (°F) | Solar V | RSSI | SNR | Time Stamp |
|---|---|---|---|---|---|---|---|---|---|---|
| 33538 | 14.7 | 3.88 | -5 | 44 | 38 | 47 | 0.10 | -70 | 9 | 02/27/2025 01:45 AM |
| 33537 | 14.7 | 3.88 | -5 | 44 | 38 | 47 | 0.10 | -70 | 9 | 02/27/2025 01:30 AM |
| 33536 | 14.7 | 3.88 | -5 | 44 | 38 | 48 | 0.00 | -70 | 8 | 02/27/2025 01:15 AM |
| 33535 | 14.7 | 3.88 | -5 | 44 | 38 | 47 | 0.00 | -70 | 8 | 02/27/2025 01:00 AM |
| 33534 | 14.7 | 3.93 | -5 | 45 | 38 | 46 | 0.00 | -71 | 8 | 02/27/2025 12:45 AM |
| 33533 | 14.7 | 3.88 | -5 | 45 | 39 | 47 | 0.00 | -70 | 8 | 02/27/2025 12:30 AM |
| 33532 | 14.6 | 3.93 | -5 | 45 | 39 | 49 | 0.10 | -71 | 8 | 02/27/2025 12:15 AM |
| 33531 | 14.7 | 3.88 | -5 | 46 | 39 | 48 | 0.00 | -70 | 8 | 02/27/2025 12:00 AM |
| 33530 | 14.7 | 3.93 | -5 | 46 | 39 | 50 | 0.00 | -69 | 8 | 02/26/2025 11:45 PM |
| 33529 | 14.6 | 3.88 | -5 | 46 | 39 | 50 | 0.00 | -70 | 8 | 02/26/2025 11:30 PM |
| 33528 | 14.6 | 3.94 | -5 | 46 | 40 | 49 | 0.00 | -70 | 8 | 02/26/2025 11:15 PM |
| 33527 | 14.7 | 3.88 | -5 | 47 | 40 | 49 | 0.00 | -70 | 8 | 02/26/2025 11:00 PM |
| 33526 | 14.7 | 3.94 | -5 | 48 | 40 | 49 | 0.10 | -70 | 8 | 02/26/2025 10:45 PM |
| 33525 | 14.7 | 3.88 | -5 | 50 | 39 | 51 | 0.00 | -70 | 8 | 02/26/2025 10:30 PM |
| 33524 | 14.7 | 3.94 | -5 | 53 | 39 | 56 | 0.00 | -69 | 8 | 02/26/2025 10:00 PM |
| 33523 | 14.6 | 3.89 | -5 | 53 | 38 | 56 | 0.00 | -69 | 8 | 02/26/2025 09:45 PM |
| 33522 | 14.7 | 3.94 | -5 | 53 | 39 | 56 | 0.00 | -69 | 8 | 02/26/2025 09:30 PM |
| 33521 | 14.6 | 3.89 | -5 | 53 | 39 | 57 | 0.00 | -69 | 8 | 02/26/2025 09:15 PM |
| 33520 | 14.7 | 3.89 | -5 | 53 | 39 | 55 | 0.00 | -70 | 8 | 02/26/2025 09:00 PM |
| 33519 | 14.7 | 3.94 | -5 | 53 | 40 | 57 | 0.00 | -70 | 8 | 02/26/2025 08:45 PM |
| 33518 | 14.7 | 3.89 | -5 | 53 | 40 | 57 | 0.10 | -69 | 8 | 02/26/2025 08:30 PM |
| 33517 | 14.7 | 3.89 | -5 | 53 | 40 | 57 | 0.10 | -69 | 8 | 02/26/2025 08:15 PM |
| 33516 | 14.7 | 3.89 | -5 | 53 | 41 | 56 | 0.00 | -69 | 8 | 02/26/2025 08:00 PM |
| 33515 | 14.7 | 3.95 | -5 | 54 | 41 | 55 | 0.00 | -69 | 8 | 02/26/2025 07:45 PM |
| 33514 | 14.7 | 3.89 | -5 | 55 | 41 | 58 | 0.00 | -69 | 8 | 02/26/2025 07:30 PM |